IWG007 LEBB-LEZL

Flight info

Callsign IWG007
Flight time 1h 7m
Altitude 33000
Route AMTOS L14 NEA NONTU ORBIS DISKO TLD DOPEN MONTO MOLIN HIJ
Aircraft A20N/M-SDE2E3FGHIJ1RWXY/LB1

Departure

Time 2026-04-26 10:44
Airport Bilbao Airport (LEBB)

Arrival

Time 2026-04-26 11:51
Airport Seville Airport (LEZL)
Time Latitude Longitude Altitude Speed Heading
2026-04-26 10:20 43.30428 -2.90634 132 ft 0 kts 26°
2026-04-26 10:33 43.30418 -2.90641 132 ft 2 kts 31°
2026-04-26 10:33 43.30404 -2.90653 132 ft 2 kts 38°
2026-04-26 10:34 43.30392 -2.90668 132 ft 2 kts 50°
2026-04-26 10:34 43.30383 -2.90687 132 ft 2 kts 73°
2026-04-26 10:34 43.30381 -2.90710 132 ft 2 kts 99°
2026-04-26 10:34 43.30385 -2.90730 132 ft 1 kts 113°
2026-04-26 10:35 43.30386 -2.90735 132 ft 0 kts 114°
2026-04-26 10:37 43.30386 -2.90734 132 ft 1 kts 114°
2026-04-26 10:38 43.30373 -2.90696 132 ft 8 kts 115°
2026-04-26 10:38 43.30343 -2.90617 132 ft 11 kts 126°
2026-04-26 10:38 43.30275 -2.90548 132 ft 13 kts 146°
2026-04-26 10:38 43.30194 -2.90542 132 ft 10 kts 206°
2026-04-26 10:39 43.30123 -2.90568 132 ft 12 kts 155°
2026-04-26 10:39 43.30078 -2.90466 132 ft 14 kts 117°
2026-04-26 10:39 43.30030 -2.90341 132 ft 15 kts 118°
2026-04-26 10:39 43.29982 -2.90211 132 ft 16 kts 114°
2026-04-26 10:40 43.29940 -2.90087 132 ft 14 kts 116°
2026-04-26 10:40 43.29895 -2.89963 132 ft 15 kts 116°
2026-04-26 10:40 43.29844 -2.89825 132 ft 17 kts 117°
2026-04-26 10:40 43.29787 -2.89671 132 ft 19 kts 116°
2026-04-26 10:41 43.29735 -2.89529 132 ft 12 kts 120°
2026-04-26 10:41 43.29688 -2.89499 132 ft 0 kts 194°
2026-04-26 10:41 43.29686 -2.89499 132 ft 0 kts 195°
2026-04-26 10:42 43.29674 -2.89509 132 ft 4 kts 217°
2026-04-26 10:43 43.29651 -2.89566 132 ft 10 kts 249°
2026-04-26 10:43 43.29623 -2.89683 132 ft 15 kts 263°
2026-04-26 10:43 43.29703 -2.89953 132 ft 64 kts 296°
2026-04-26 10:43 43.30019 -2.90817 128 ft 134 kts 296°
2026-04-26 10:44 43.30502 -2.92177 339 ft 170 kts 295°
2026-04-26 10:44 43.31065 -2.93677 915 ft 184 kts 299°
2026-04-26 10:44 43.31720 -2.95247 1658 ft 191 kts 301°
2026-04-26 10:44 43.32461 -2.96762 2533 ft 191 kts 307°
2026-04-26 10:45 43.33187 -2.97889 3201 ft 193 kts 316°
2026-04-26 10:45 43.34267 -2.99006 4045 ft 193 kts 326°
2026-04-26 10:45 43.35309 -3.00166 4898 ft 193 kts 315°
2026-04-26 10:45 43.36237 -3.01510 5704 ft 194 kts 313°
2026-04-26 10:46 43.37139 -3.02922 6450 ft 198 kts 310°
2026-04-26 10:46 43.38009 -3.04379 7163 ft 200 kts 308°
2026-04-26 10:46 43.38732 -3.06001 7939 ft 197 kts 287°
2026-04-26 10:46 43.38787 -3.07857 8717 ft 197 kts 258°
2026-04-26 10:47 43.38207 -3.09662 9075 ft 219 kts 237°
2026-04-26 10:47 43.37204 -3.11408 9304 ft 246 kts 227°
2026-04-26 10:47 43.36372 -3.12528 9565 ft 260 kts 221°
2026-04-26 10:47 43.34858 -3.14057 10058 ft 279 kts 211°
2026-04-26 10:48 43.33024 -3.15128 10622 ft 295 kts 195°
2026-04-26 10:48 43.30907 -3.15210 10917 ft 319 kts 173°
2026-04-26 10:48 43.28624 -3.14841 11244 ft 339 kts 174°
2026-04-26 10:48 43.26278 -3.14250 12003 ft 344 kts 168°
2026-04-26 10:49 43.23964 -3.13320 12806 ft 349 kts 160°
2026-04-26 10:49 43.21744 -3.11912 13597 ft 355 kts 151°
2026-04-26 10:49 43.19714 -3.10018 14342 ft 360 kts 141°
2026-04-26 10:49 43.17763 -3.07817 15053 ft 363 kts 148°
2026-04-26 10:50 43.15457 -3.06441 15723 ft 364 kts 168°
2026-04-26 10:50 43.12934 -3.06196 16380 ft 366 kts 187°
2026-04-26 10:50 43.10479 -3.07111 17039 ft 368 kts 206°
2026-04-26 10:50 43.08374 -3.09061 17656 ft 372 kts 224°
2026-04-26 10:51 43.06770 -3.11875 18289 ft 376 kts 238°
2026-04-26 10:51 43.03680 -3.17652 19510 ft 380 kts 226°
2026-04-26 10:51 43.01753 -3.20152 20106 ft 383 kts 221°
2026-04-26 10:52 42.99668 -3.22452 20706 ft 386 kts 217°
2026-04-26 10:52 42.97487 -3.24591 21301 ft 389 kts 214°
2026-04-26 10:52 42.95226 -3.26665 21876 ft 392 kts 214°
2026-04-26 10:52 42.92935 -3.28740 22458 ft 396 kts 214°
2026-04-26 10:53 42.90650 -3.30822 23029 ft 399 kts 214°
2026-04-26 10:53 42.88323 -3.32960 23587 ft 402 kts 214°
2026-04-26 10:53 42.86022 -3.35083 24088 ft 405 kts 214°
2026-04-26 10:54 42.81340 -3.39412 25075 ft 408 kts 214°
2026-04-26 10:54 42.78975 -3.41596 25533 ft 410 kts 214°
2026-04-26 10:54 42.76624 -3.43765 25972 ft 413 kts 214°
2026-04-26 10:54 42.74237 -3.45966 26418 ft 415 kts 214°
2026-04-26 10:55 42.71834 -3.48179 26858 ft 417 kts 214°
2026-04-26 10:55 42.69421 -3.50399 27289 ft 419 kts 214°
2026-04-26 10:55 42.66996 -3.52629 27725 ft 421 kts 214°
2026-04-26 10:55 42.64547 -3.54877 28114 ft 423 kts 214°
2026-04-26 10:56 42.62133 -3.57092 28535 ft 425 kts 214°
2026-04-26 10:56 42.59651 -3.59367 28921 ft 427 kts 214°
2026-04-26 10:56 42.57202 -3.61609 29281 ft 429 kts 214°
2026-04-26 10:56 42.54711 -3.63888 29625 ft 432 kts 214°
2026-04-26 10:57 42.52206 -3.66177 29985 ft 434 kts 213°
2026-04-26 10:57 42.49693 -3.68472 30325 ft 436 kts 213°
2026-04-26 10:57 42.47186 -3.70759 30629 ft 438 kts 213°
2026-04-26 10:57 42.44655 -3.73066 30947 ft 439 kts 213°
2026-04-26 10:58 42.42133 -3.75363 31165 ft 441 kts 213°
2026-04-26 10:58 42.39579 -3.77685 31207 ft 441 kts 213°
2026-04-26 10:58 42.34502 -3.82296 31205 ft 440 kts 213°
2026-04-26 10:59 42.29396 -3.86922 31196 ft 440 kts 213°
2026-04-26 10:59 42.24336 -3.91498 31179 ft 440 kts 213°
2026-04-26 11:00 42.19224 -3.96112 31167 ft 440 kts 213°
2026-04-26 11:00 42.14147 -4.00686 31161 ft 440 kts 213°
2026-04-26 11:01 42.09071 -4.05251 31160 ft 440 kts 213°
2026-04-26 11:01 42.03803 -4.09454 31158 ft 440 kts 202°
2026-04-26 11:02 41.97917 -4.11498 31155 ft 440 kts 185°
2026-04-26 11:02 41.91800 -4.12165 31158 ft 440 kts 185°
2026-04-26 11:03 41.85677 -4.12860 31156 ft 440 kts 185°
2026-04-26 11:03 41.79546 -4.13559 31650 ft 442 kts 185°
2026-04-26 11:04 41.76524 -4.13903 32103 ft 439 kts 185°
2026-04-26 11:04 41.73473 -4.14249 32497 ft 438 kts 185°
2026-04-26 11:04 41.70442 -4.14593 32872 ft 438 kts 185°
2026-04-26 11:04 41.67398 -4.14937 33116 ft 437 kts 185°
2026-04-26 11:05 41.61374 -4.15619 33159 ft 435 kts 185°
2026-04-26 11:05 41.55354 -4.16299 33161 ft 435 kts 185°
2026-04-26 11:06 41.49286 -4.16983 33156 ft 436 kts 185°
2026-04-26 11:06 41.43260 -4.17661 33161 ft 436 kts 185°
2026-04-26 11:07 41.37191 -4.18343 33163 ft 437 kts 185°
2026-04-26 11:07 41.31140 -4.19021 33169 ft 437 kts 185°
2026-04-26 11:08 41.25083 -4.19700 33171 ft 437 kts 185°
2026-04-26 11:08 41.19032 -4.20376 33174 ft 438 kts 185°
2026-04-26 11:09 41.12981 -4.21050 33175 ft 438 kts 185°
2026-04-26 11:09 41.06888 -4.21728 33177 ft 438 kts 185°
2026-04-26 11:10 41.00844 -4.22400 33169 ft 437 kts 184°
2026-04-26 11:10 40.94768 -4.23073 33164 ft 437 kts 184°
2026-04-26 11:11 40.88691 -4.23744 33163 ft 436 kts 184°
2026-04-26 11:11 40.82636 -4.24413 33161 ft 436 kts 184°
2026-04-26 11:12 40.76595 -4.25077 33152 ft 436 kts 184°
2026-04-26 11:12 40.70571 -4.25739 33151 ft 436 kts 184°
2026-04-26 11:13 40.64534 -4.26402 33150 ft 436 kts 184°
2026-04-26 11:13 40.58474 -4.27066 33155 ft 435 kts 184°
2026-04-26 11:14 40.52410 -4.27730 33140 ft 435 kts 184°
2026-04-26 11:14 40.47379 -4.28280 33130 ft 436 kts 184°
2026-04-26 11:15 40.40316 -4.29050 33125 ft 436 kts 184°
2026-04-26 11:15 40.34269 -4.29708 33123 ft 437 kts 184°
2026-04-26 11:16 40.28171 -4.30369 33123 ft 438 kts 184°
2026-04-26 11:16 40.22072 -4.31030 33123 ft 439 kts 184°
2026-04-26 11:17 40.16004 -4.31686 33122 ft 440 kts 184°
2026-04-26 11:17 40.09875 -4.32348 33123 ft 441 kts 184°
2026-04-26 11:18 40.03758 -4.33008 33132 ft 441 kts 184°
2026-04-26 11:18 39.97650 -4.33668 33130 ft 442 kts 184°
2026-04-26 11:19 39.91542 -4.34899 33128 ft 443 kts 188°
2026-04-26 11:19 39.85469 -4.36219 33127 ft 444 kts 188°
2026-04-26 11:20 39.80386 -4.37317 33132 ft 445 kts 188°
2026-04-26 11:20 39.73246 -4.38853 33122 ft 444 kts 188°
2026-04-26 11:21 39.67184 -4.40147 33122 ft 444 kts 187°
2026-04-26 11:21 39.61128 -4.41440 33124 ft 444 kts 187°
2026-04-26 11:22 39.54975 -4.42751 33122 ft 444 kts 187°
2026-04-26 11:22 39.48871 -4.44047 33116 ft 445 kts 187°
2026-04-26 11:23 39.42767 -4.45342 33116 ft 445 kts 187°
2026-04-26 11:23 39.36648 -4.46637 33114 ft 445 kts 187°
2026-04-26 11:24 39.30520 -4.47934 33110 ft 446 kts 187°
2026-04-26 11:24 39.24418 -4.49452 33105 ft 448 kts 195°
2026-04-26 11:25 39.18680 -4.52669 33110 ft 452 kts 210°
2026-04-26 11:25 39.13425 -4.57148 33106 ft 453 kts 212°
2026-04-26 11:26 39.08193 -4.61619 33110 ft 453 kts 212°
2026-04-26 11:26 39.02936 -4.66089 33107 ft 454 kts 212°
2026-04-26 11:27 38.97660 -4.70569 33107 ft 455 kts 212°
2026-04-26 11:27 38.92369 -4.75049 33106 ft 455 kts 212°
2026-04-26 11:28 38.87953 -4.78783 33113 ft 455 kts 212°
2026-04-26 11:28 38.82660 -4.83251 33100 ft 456 kts 212°
2026-04-26 11:29 38.77376 -4.87704 32940 ft 456 kts 212°
2026-04-26 11:29 38.74702 -4.89954 32680 ft 455 kts 212°
2026-04-26 11:29 38.72045 -4.92188 32414 ft 456 kts 212°
2026-04-26 11:30 38.69414 -4.94397 31971 ft 457 kts 212°
2026-04-26 11:30 38.66735 -4.96644 31190 ft 461 kts 212°
2026-04-26 11:30 38.64025 -4.98914 30169 ft 468 kts 212°
2026-04-26 11:30 38.61290 -5.01205 29349 ft 467 kts 212°
2026-04-26 11:31 38.58620 -5.03441 28768 ft 460 kts 212°
2026-04-26 11:31 38.55941 -5.05682 28098 ft 456 kts 212°
2026-04-26 11:31 38.53291 -5.07891 27571 ft 448 kts 213°
2026-04-26 11:31 38.50748 -5.10091 26996 ft 442 kts 217°
2026-04-26 11:32 38.48384 -5.12611 26440 ft 437 kts 221°
2026-04-26 11:32 38.46130 -5.15116 25888 ft 433 kts 221°
2026-04-26 11:32 38.43862 -5.17628 25341 ft 428 kts 221°
2026-04-26 11:32 38.41606 -5.20120 24770 ft 425 kts 221°
2026-04-26 11:33 38.39391 -5.22562 24209 ft 422 kts 221°
2026-04-26 11:33 38.37179 -5.24998 23644 ft 419 kts 221°
2026-04-26 11:33 38.34978 -5.27419 23091 ft 414 kts 221°
2026-04-26 11:33 38.32829 -5.29782 22574 ft 408 kts 221°
2026-04-26 11:34 38.30688 -5.32134 22051 ft 404 kts 220°
2026-04-26 11:34 38.28559 -5.34471 21530 ft 399 kts 220°
2026-04-26 11:34 38.26487 -5.36744 21027 ft 395 kts 220°
2026-04-26 11:34 38.24403 -5.39029 20508 ft 391 kts 220°
2026-04-26 11:35 38.22345 -5.41284 19997 ft 388 kts 220°
2026-04-26 11:35 38.20298 -5.43524 19505 ft 385 kts 220°
2026-04-26 11:35 38.18300 -5.45710 19002 ft 383 kts 220°
2026-04-26 11:35 38.16270 -5.47928 18509 ft 381 kts 220°
2026-04-26 11:36 38.14259 -5.50124 17978 ft 379 kts 220°
2026-04-26 11:36 38.12266 -5.52299 17457 ft 376 kts 220°
2026-04-26 11:36 38.10283 -5.54460 16975 ft 373 kts 219°
2026-04-26 11:36 38.08313 -5.56607 16479 ft 371 kts 219°
2026-04-26 11:37 38.06378 -5.58714 15978 ft 369 kts 219°
2026-04-26 11:37 38.04419 -5.60845 15489 ft 367 kts 219°
2026-04-26 11:37 38.02484 -5.62944 14985 ft 365 kts 219°
2026-04-26 11:37 38.00548 -5.65045 14505 ft 364 kts 219°
2026-04-26 11:38 37.98641 -5.67114 13988 ft 365 kts 219°
2026-04-26 11:38 37.96719 -5.69201 13500 ft 362 kts 219°
2026-04-26 11:38 37.94814 -5.71267 13014 ft 359 kts 219°
2026-04-26 11:38 37.92919 -5.73322 12540 ft 356 kts 219°
2026-04-26 11:39 37.91036 -5.75360 12074 ft 354 kts 219°
2026-04-26 11:39 37.89171 -5.77378 11589 ft 353 kts 218°
2026-04-26 11:39 37.87306 -5.79393 11112 ft 350 kts 218°
2026-04-26 11:39 37.85472 -5.81374 10658 ft 348 kts 218°
2026-04-26 11:40 37.83635 -5.83358 10403 ft 339 kts 218°
2026-04-26 11:40 37.81872 -5.85263 10276 ft 326 kts 218°
2026-04-26 11:40 37.80193 -5.87073 10161 ft 314 kts 218°
2026-04-26 11:40 37.78551 -5.88843 9899 ft 307 kts 217°
2026-04-26 11:41 37.76944 -5.90571 9617 ft 301 kts 217°
2026-04-26 11:42 37.66013 -6.02303 7020 ft 289 kts 219°
2026-04-26 11:43 37.64577 -6.04081 6601 ft 290 kts 222°
2026-04-26 11:43 37.63097 -6.05821 6228 ft 289 kts 218°
2026-04-26 11:43 37.61570 -6.07412 5849 ft 287 kts 215°
2026-04-26 11:43 37.59965 -6.08869 5738 ft 274 kts 211°
2026-04-26 11:44 37.58386 -6.10116 5634 ft 262 kts 207°
2026-04-26 11:44 37.56815 -6.11185 5529 ft 251 kts 202°
2026-04-26 11:44 37.55227 -6.12093 5218 ft 248 kts 199°
2026-04-26 11:44 37.53640 -6.12872 4879 ft 246 kts 196°
2026-04-26 11:45 37.52017 -6.13553 4528 ft 245 kts 193°
2026-04-26 11:45 37.50389 -6.14123 4238 ft 241 kts 190°
2026-04-26 11:45 37.48793 -6.14579 4151 ft 230 kts 187°
2026-04-26 11:45 37.47248 -6.14922 4066 ft 220 kts 185°
2026-04-26 11:46 37.45751 -6.15158 4002 ft 212 kts 181°
2026-04-26 11:46 37.44325 -6.15233 3868 ft 204 kts 167°
2026-04-26 11:46 37.43047 -6.14658 3783 ft 185 kts 143°
2026-04-26 11:46 37.42184 -6.13605 3651 ft 163 kts 121°
2026-04-26 11:47 37.41751 -6.12376 3541 ft 146 kts 102°
2026-04-26 11:47 37.41570 -6.11167 3354 ft 139 kts 94°
2026-04-26 11:47 37.41596 -6.09963 3121 ft 140 kts 81°
2026-04-26 11:47 37.41794 -6.08743 2781 ft 145 kts 81°
2026-04-26 11:48 37.41864 -6.07476 2554 ft 149 kts 91°
2026-04-26 11:48 37.41783 -6.06195 2401 ft 142 kts 95°
2026-04-26 11:48 37.41718 -6.04955 2231 ft 140 kts 91°
2026-04-26 11:48 37.41737 -6.03704 1838 ft 150 kts 86°
2026-04-26 11:49 37.41785 -6.02363 1413 ft 152 kts 90°
2026-04-26 11:49 37.41790 -6.01106 1338 ft 136 kts 91°
2026-04-26 11:49 37.41745 -5.99953 1305 ft 133 kts 91°
2026-04-26 11:49 37.41727 -5.98722 1238 ft 148 kts 89°
2026-04-26 11:50 37.41738 -5.97417 1056 ft 146 kts 88°
2026-04-26 11:50 37.41760 -5.96190 834 ft 137 kts 86°
2026-04-26 11:50 37.41771 -5.94995 631 ft 137 kts 86°
2026-04-26 11:50 37.41797 -5.93767 422 ft 140 kts 90°
2026-04-26 11:51 37.41776 -5.92584 306 ft 131 kts 88°
2026-04-26 11:51 37.41790 -5.91471 145 ft 123 kts 88°
2026-04-26 11:51 37.41788 -5.90445 100 ft 101 kts 89°
2026-04-26 11:51 37.41795 -5.89816 98 ft 42 kts 89°
2026-04-26 11:52 37.41799 -5.89619 98 ft 17 kts 89°
2026-04-26 11:52 37.41799 -5.89517 99 ft 18 kts 90°
2026-04-26 11:52 37.41800 -5.89302 99 ft 18 kts 75°
2026-04-26 11:52 37.41901 -5.89298 98 ft 19 kts 326°
2026-04-26 11:53 37.42016 -5.89399 99 ft 21 kts 316°
2026-04-26 11:53 37.42126 -5.89545 96 ft 25 kts 314°
2026-04-26 11:53 37.42254 -5.89705 93 ft 23 kts 318°
2026-04-26 11:54 37.42383 -5.89742 93 ft 0 kts 350°